Location: Munkebjergskolens Observatorium
(55.3864°N, 10.3987°E)
Time: 16:47:56
(UTC+01:00)

NOAA 18 - Visible Passes

Search period start: 20 March 2023 00:00
Search period end: 30 March 2023 01:00
Orbit: 840 x 859 km, 98.9° (Epoch: 20 March)

Date Brightness Start Highest point End Pass type
(mag) Time Alt. Az. Time Alt. Az. Time Alt. Az.
20 Mar 7.1 19:31:00 10° ENE 19:34:01 15° NE 19:37:02 10° N visible
20 Mar 5.5 21:12:30 45° E 21:13:35 52° ENE 21:18:58 10° N visible
20 Mar 6.3 22:54:28 35° W 22:54:28 35° W 22:59:34 10° NNW visible
21 Mar 7.2 19:19:36 10° ENE 19:22:03 13° NE 19:24:29 10° NNE visible
21 Mar 5.7 21:00:03 37° E 21:01:27 44° ENE 21:06:42 10° N visible
21 Mar 6.0 22:42:01 43° WSW 22:42:10 43° W 22:47:29 10° NNW visible
22 Mar 7.3 19:08:24 10° NE 19:10:06 11° NE 19:11:48 10° NNE visible
22 Mar 5.9 20:47:35 30° E 20:49:22 37° ENE 20:54:26 10° N visible
22 Mar 5.7 22:29:34 51° WSW 22:29:54 52° W 22:35:21 10° NNW visible
23 Mar 7.7 00:11:32 10° W 00:11:55 10° W 00:12:50 10° WNW visible
23 Mar 6.2 20:35:09 24° E 20:37:17 32° ENE 20:42:08 10° N visible
23 Mar 5.4 22:17:07 59° SW 22:17:40 63° WSW 22:23:12 10° NNW visible
23 Mar 7.5 23:59:05 13° W 23:59:29 13° W 00:02:00 10° NW visible
24 Mar 6.4 20:22:41 20° E 20:25:13 27° NE 20:29:49 10° N visible
24 Mar 5.2 22:04:40 64° SSW 22:05:26 75° WSW 22:11:02 10° NNW visible
24 Mar 7.3 23:46:38 16° W 23:47:04 16° W 23:50:26 10° NW visible
25 Mar 6.6 20:10:15 16° E 20:13:10 24° NE 20:17:29 10° N visible
25 Mar 5.1 21:52:13 62° SSE 21:53:14 89° WSW 21:58:50 10° NNW visible
25 Mar 7.1 23:34:11 19° W 23:34:40 20° W 23:38:39 10° NW visible
26 Mar 6.8 20:57:48 12° E 21:01:09 21° NE 21:05:08 10° N visible
26 Mar 5.1 22:39:46 54° SE 22:41:03 77° ENE 22:46:38 10° NNW visible
27 Mar 6.9 00:21:44 23° W 00:22:18 24° W 00:26:44 10° NW visible
27 Mar 6.9 20:45:33 10° E 20:49:08 18° NE 20:52:44 10° N visible
27 Mar 5.3 22:27:19 45° SE 22:28:53 65° ENE 22:34:24 10° NNW visible
28 Mar 6.6 00:09:17 28° WSW 00:09:58 28° W 00:14:45 10° NNW visible
28 Mar 7.1 20:34:00 10° ENE 20:37:08 16° NE 20:40:17 10° N visible
28 Mar 5.5 22:14:52 37° ESE 22:16:44 54° ENE 22:22:09 10° N visible
28 Mar 6.3 23:56:50 32° WSW 23:57:39 34° W 00:02:42 10° NNW visible
29 Mar 7.2 20:22:34 10° ENE 20:25:09 14° NE 20:27:46 10° NNE visible
29 Mar 5.7 22:02:24 31° ESE 22:04:36 46° ENE 22:09:53 10° N visible
29 Mar 6.0 23:44:23 38° WSW 23:45:21 41° W 23:50:37 10° NNW visible
